Lake Nacimiento Weather Center

Moon Phase Calendar



Lake Nacimiento Water Level
Online Cameras

 


      

Current Conditions in Lake Nacimiento
5/18/2024 12:36:18 AM

50°F
Feels Like 49
Clouds
Humidity
96%
Pressure
29.94"
Wind
3.3 mph (SW)
Dew Point
49°F
UV Index
0/10 (Low)
Visibility
6 mi

Hourly Forecast

Date & Time Sat, May 18
12:00 AM
Sat, May 18
1:00 AM
Sat, May 18
2:00 AM
Sat, May 18
3:00 AM
Sat, May 18
4:00 AM
Sat, May 18
5:00 AM
Sat, May 18
6:00 AM
Sat, May 18
7:00 AM
Sat, May 18
8:00 AM
Sat, May 18
9:00 AM
Sat, May 18
10:00 AM
Sat, May 18
11:00 AM
Sat, May 18
12:00 PM
Sat, May 18
1:00 PM
Sat, May 18
2:00 PM
Sat, May 18
3:00 PM
Sat, May 18
4:00 PM
Sat, May 18
5:00 PM
Sat, May 18
6:00 PM
Sat, May 18
7:00 PM
Sat, May 18
8:00 PM
Sat, May 18
9:00 PM
Sat, May 18
10:00 PM
Sat, May 18
11:00 PM
Sun, May 19
12:00 AM
Sun, May 19
1:00 AM
Sun, May 19
2:00 AM
Sun, May 19
3:00 AM
Sun, May 19
4:00 AM
Sun, May 19
5:00 AM
Sun, May 19
6:00 AM
Sun, May 19
7:00 AM
Sun, May 19
8:00 AM
Sun, May 19
9:00 AM
Sun, May 19
10:00 AM
Sun, May 19
11:00 AM
Sun, May 19
12:00 PM
Sun, May 19
1:00 PM
Sun, May 19
2:00 PM
Sun, May 19
3:00 PM
Sun, May 19
4:00 PM
Sun, May 19
5:00 PM
Sun, May 19
6:00 PM
Sun, May 19
7:00 PM
Sun, May 19
8:00 PM
Sun, May 19
9:00 PM
Sun, May 19
10:00 PM
Sun, May 19
11:00 PM
Condition
Clouds

Clouds

Clouds

Clouds

Clouds

Clouds

Clouds

Clouds

Clouds

Clouds

Clouds

Clouds

Clouds

Clouds

Clear

Clear

Clear

Clear

Clear

Clear

Clear

Clear

Clear

Clear

Clear

Clear

Clear

Clear

Clear

Clear

Clear

Clear

Clear

Clear

Clear

Clear

Clear

Clear

Clear

Clear

Clear

Clear

Clear

Clear

Clear

Clear

Clear

Clear
Temperature 50°F50°F49°F49°F48°F47°F47°F49°F52°F56°F60°F64°F67°F69°F70°F69°F67°F64°F61°F57°F52°F49°F48°F47°F47°F46°F47°F47°F46°F46°F45°F49°F54°F60°F65°F70°F74°F77°F79°F78°F74°F71°F69°F65°F56°F52°F50°F48°F
Feels Like 50°F49°F49°F49°F48°F46°F46°F48°F51°F54°F59°F63°F66°F68°F68°F68°F66°F63°F59°F55°F50°F47°F47°F46°F47°F46°F47°F47°F46°F46°F45°F49°F53°F58°F64°F69°F73°F76°F79°F77°F74°F70°F67°F63°F55°F51°F49°F48°F
Cloudiness 46%51%54%57%58%66%100%100%100%98%96%87%20%11%8%6%5%4%0%0%1%2%2%3%10%8%7%6%5%4%7%6%5%5%4%4%0%0%0%0%0%0%0%0%0%0%1%2%
Visibility 6 mi6 mi6 mi6 mi6 mi6 mi6 mi6 mi6 mi6 mi6 mi6 mi6 mi6 mi6 mi6 mi6 mi6 mi6 mi6 mi6 mi6 mi6 mi6 mi6 mi6 mi6 mi6 mi6 mi6 mi6 mi6 mi6 mi6 mi6 mi6 mi6 mi6 mi6 mi6 mi6 mi6 mi6 mi6 mi6 mi6 mi6 mi6 mi
Precipitation 0%0%0%0%0%0%0%0%0%0%0%0%0%0%0%0%0%0%0%0%0%0%0%0%0%0%0%0%0%0%0%0%0%0%0%0%0%0%0%0%0%0%0%0%0%0%0%0%
Humidity 97%96%96%96%96%95%94%89%81%72%63%55%50%47%46%47%49%53%60%68%83%91%94%95%96%96%95%96%96%96%96%89%77%65%55%48%41%37%34%36%41%45%47%54%72%81%87%90%
Dew Point 49°F49°F48°F48°F47°F46°F45°F45°F46°F46°F47°F47°F47°F47°F47°F47°F47°F47°F46°F46°F46°F46°F45°F45°F45°F45°F45°F45°F45°F44°F44°F45°F47°F48°F48°F49°F49°F48°F47°F48°F48°F48°F47°F47°F47°F46°F45°F45°F
Pressure 29.94"29.94"29.94"29.94"29.97"29.97"29.97"30"30"30"29.97"29.97"29.94"29.94"29.94"29.91"29.91"29.94"29.94"29.97"30"30"30.03"30.03"30.03"30.03"30.03"30.03"30.03"30.03"30.06"30.06"30.03"30.03"30.03"30"30"29.97"29.94"29.94"29.94"29.94"29.94"29.91"29.94"29.97"29.97"30"
Wind Speed 2.7 mph3.3 mph3.5 mph2.7 mph2.9 mph3.4 mph3.3 mph3.1 mph3.1 mph3.5 mph4 mph4.9 mph6 mph7 mph7.9 mph8.4 mph8.2 mph7.9 mph7.5 mph6.4 mph4.5 mph3.8 mph3.4 mph3.2 mph2.6 mph2.1 mph2.2 mph2.5 mph2.3 mph1.8 mph1.7 mph1.6 mph2.2 mph2.5 mph2.7 mph3 mph3.2 mph3.8 mph4.8 mph6.8 mph7.7 mph7.4 mph6 mph4.8 mph3.6 mph3.3 mph3.2 mph2.8 mph
Wind
Direction
229°
SW
224°
SW
215°
SW
223°
SW
215°
SW
210°
SSW
218°
SW
207°
SSW
208°
SSW
206°
SSW
206°
SSW
206°
SSW
212°
SSW
215°
SW
216°
SW
213°
SSW
214°
SW
221°
SW
219°
SW
221°
SW
218°
SW
219°
SW
222°
SW
237°
WSW
241°
WSW
242°
WSW
231°
SW
230°
SW
231°
SW
237°
WSW
224°
SW
247°
WSW
233°
SW
237°
WSW
227°
SW
226°
SW
229°
SW
231°
SW
226°
SW
223°
SW
222°
SW
229°
SW
232°
SW
226°
SW
215°
SW
198°
SSW
195°
SSW
189°
S

Daily Forecast

Date High Low Precip. Humidity
Today
May 18

Clouds
70 °F
47 °F
0%
47%
Sunday
May 19

Clear
79 °F
45 °F
0%
37%
Monday
May 20

Clear
72 °F
43 °F
0%
39%
Tuesday
May 21

Clear
81 °F
48 °F
0%
24%
Wednesday
May 22

Clear
78 °F
49 °F
0%
29%
Thursday
May 23

Clouds
67 °F
46 °F
0%
45%
Friday
May 24

Clear
69 °F
48 °F
0%
46%
Saturday
May 25

Clear
71 °F
47 °F
0%
37%
Sunday
May 26

Clear
76 °F
44 °F
0%
31%
Monday
May 27

Clear
82 °F
46 °F
0%
25%
Tuesday
May 28

Clouds
86 °F
49 °F
0%
18%
Wednesday
May 29

Clouds
85 °F
50 °F
0%
13%
Thursday
May 30

Clear
80 °F
48 °F
0%
24%
Friday
May 31

Clouds
71 °F
43 °F
0%
25%
Saturday
Jun 1

Clouds
67 °F
40 °F
0%
31%
Sunday
Jun 2

Clouds
69 °F
40 °F
0%
26%

Temperature 8-14 Day Outlook



Precipitation 8-14 Day Outlook






About Us
Contact Us
Site Map
Search Site
Advertise With Us
   
Nacimiento.USLakes.info
THE LAKE NACIMIENTO WEBSITE

Copyright 2024, Lakes Online
Privacy    |    Legal